Address 0x79608541c826fce905813fd3c09dbb4fdc457305

 
Txn Hash
Block
From
To
Value [Txn Fee]
0xd91ed37eb758a75bfe5c12470621d76824d045e1fd6706c2907d48071e6e581452257742021-02-26 21:40:2418 hrs 17 mins ago0x79608541c826fce905813fd3c09dbb4fdc457305OUT Binance: WBNB Token0 BNB0.00044
0x7fb7ef6e5bf79be48675cfa21771a855384a4c816b576aff8718a407fbfcfae452257552021-02-26 21:39:2718 hrs 18 mins ago0x79608541c826fce905813fd3c09dbb4fdc457305OUT PancakeSwap: Router0 BNB0.00099824
0xebc808741e6f6dc583a2534dec3e4affbb4fbfe9f9f06261525a0dcc204b0b0852257422021-02-26 21:38:4818 hrs 18 mins ago0x79608541c826fce905813fd3c09dbb4fdc457305OUT Binance: BUSD Stablecoin0 BNB0.00044406
0xcad9ce97315ed5018910bdea374f860ead9bc1c8106d7f1725419b098d3f515b52256612021-02-26 21:34:4518 hrs 22 mins ago0x79608541c826fce905813fd3c09dbb4fdc457305OUT Binance: BUSD Stablecoin0 BNB0.00044142
0x79058d22d18acb2e8fe9a630eb092ea020fa20ad4fe37806605250b27abeafe752243972021-02-26 20:30:1419 hrs 27 mins ago0x79608541c826fce905813fd3c09dbb4fdc457305OUT Binance: WBNB Token0 BNB0.00022316
0x7d86ac8b1f5522e93fec63fab96fc7615ca5f638b244a0f200746080beb50bb352172052021-02-26 14:28:241 day 1 hr ago0x79608541c826fce905813fd3c09dbb4fdc457305OUT 0x303961805a22d76bac6b2de0c33feb746d82544b0 BNB0.00154648
0x517d22ea7fbd0882ab5112bb9b5bd6ac9d8f308bfb02b85c0e206fed53c4db6d51726972021-02-25 1:16:262 days 14 hrs ago0x79608541c826fce905813fd3c09dbb4fdc457305OUT Spore Engineering: BUSD Farm0 BNB0.00205465
0x957879f6f291aabb751eb4fb6be84aeaf46fb3e9a1e9eaf0f75e9a1e295ca63251726932021-02-25 1:16:142 days 14 hrs ago0x79608541c826fce905813fd3c09dbb4fdc457305OUT PancakeSwap: SPORE-BUSD0 BNB0.00044043
0x6f8f2c8cde1c88e82332a5470f3440662d7b7ca8048c0df87182bf63a1f1c46a51726352021-02-25 1:13:202 days 14 hrs ago0x79608541c826fce905813fd3c09dbb4fdc457305OUT PancakeSwap: SPORE-BUSD0 BNB0.00044067
0x0a6fa3d6b0ed481c6baa55886131dec0e49095fa176c396e4d62a6c9b5a805ad51725982021-02-25 1:11:292 days 14 hrs ago0x79608541c826fce905813fd3c09dbb4fdc457305OUT Spore Engineering: BUSD Farm0 BNB0.00228778
0xb13c09497af270712ea66b293468cd24c2011b261ca58ffd9631b6de26746d7351725032021-02-25 1:06:442 days 14 hrs ago0x79608541c826fce905813fd3c09dbb4fdc457305OUT 0x303961805a22d76bac6b2de0c33feb746d82544b0 BNB0.00185062
0xb5ad2aab6090206a0adaa351b214ae54d8c90a95ba220f0ac1df1dbc93860f6451724512021-02-25 1:04:082 days 14 hrs ago0x79608541c826fce905813fd3c09dbb4fdc457305OUT Sponge Finance: SOAK Token0 BNB0.00025348
0xd73d9eca4b792f5e73426d9060698a828b2565ac92f1069c6006b60471edd67d51724482021-02-25 1:03:592 days 14 hrs ago0x79608541c826fce905813fd3c09dbb4fdc457305OUT Sponge Finance: SOAK Token0 BNB0.00044548
0x23ec89b2cbf42a81d312be4142d5bde923243036cdbd2b3800c76751849712ce51721642021-02-25 0:49:472 days 15 hrs ago0x79608541c826fce905813fd3c09dbb4fdc457305OUT 0xe035dce0e345cbd46f3c0dcbf602f96c5f7418130 BNB0.00237435
0x5133b6ec4bd98b355da86c28e83f113d267e01e81e619b3f69091e657f4e8b2d51721452021-02-25 0:48:502 days 15 hrs ago0x79608541c826fce905813fd3c09dbb4fdc457305OUT PancakeSwap: SOAK0 BNB0.00044067
0x386a200f6dec87e6469cb08338b770538b28e817a7865474110b767d1d0e919751720132021-02-25 0:42:132 days 15 hrs ago0x79608541c826fce905813fd3c09dbb4fdc457305OUT Beefy.Finance: BIFI Token0 BNB0.00044245
0x727b1af96f528e14f89f0f8a8185f79e1f23e4cbe1bfc57d49a539d5046e41e551719762021-02-25 0:40:222 days 15 hrs ago0x79608541c826fce905813fd3c09dbb4fdc457305OUT 0x303961805a22d76bac6b2de0c33feb746d82544b0 BNB0.00138395
0x164c50c9b737cd6858bd888334510f1e5d42361d99b059e4e2f45c9f78358ff651719472021-02-25 0:38:552 days 15 hrs ago0x79608541c826fce905813fd3c09dbb4fdc457305OUT 0x303961805a22d76bac6b2de0c33feb746d82544b0 BNB0.00129269
0xa8b9cf15dece181b8a9f5de5566f43c3599cd291e82a78c4e18e0a1e93eb87f051710932021-02-24 23:56:132 days 16 hrs ago0x79608541c826fce905813fd3c09dbb4fdc457305OUT Binance: WBNB Token0 BNB0.00044264
0x0234b83283d54931edcce99f33c9659347a2110b6c3af636aeb8144d7bce1fc651709932021-02-24 23:51:102 days 16 hrs ago0x79608541c826fce905813fd3c09dbb4fdc457305OUT Sponge Finance: SOAK Token0 BNB0.00044548
0xa72ed8623c19e127c28840b25b6d934bf3df8db466641b46e227cd600b3bce4c51707702021-02-24 23:40:012 days 16 hrs ago0x79608541c826fce905813fd3c09dbb4fdc457305OUT Spore Engineering: Staking Contract0 BNB0.00236894
0x92101894c8ed4083018ef8ac9c445e0712f146bf5fd5f044afc062d0574b0e9d51707582021-02-24 23:39:252 days 16 hrs ago0x79608541c826fce905813fd3c09dbb4fdc457305OUT Spore Engineering: SPORE Token0 BNB0.00044215
0xab91899a4b72c7d122ca61bd3e1181a2b3c6ddb685ba20461eb0d50d24b8116551707322021-02-24 23:38:072 days 16 hrs ago0x79608541c826fce905813fd3c09dbb4fdc457305OUT Spore Engineering: BUSD Farm0 BNB0.00070926
0x2031ff7d38db3d5adeafd52260691d0cedca0aa14c4dedc42c675b84b754f53051701762021-02-24 23:10:192 days 16 hrs ago0x79608541c826fce905813fd3c09dbb4fdc457305OUT Spore Engineering: BUSD Farm0 BNB0.00060126
0x613c28c181a496621b9b4467bb4acb7cc1b3098ccf39f4fb3416feefb993b83951652942021-02-24 19:05:112 days 20 hrs ago0x79608541c826fce905813fd3c09dbb4fdc457305OUT0x7c31c9b0c7d2459b85ae6601919c7b0f5fc7c6bc0.031562 BNB0.002814
[ Download CSV Export 
Latest 6 internal transactions
Parent Txn Hash Block From To Value
0x79058d22d18acb2e8fe9a630eb092ea020fa20ad4fe37806605250b27abeafe752243972021-02-26 20:30:1419 hrs 27 mins ago Binance: WBNB Token0x79608541c826fce905813fd3c09dbb4fdc4573050.008261961430134318 BNB
0x414c0ef19f99797ae4ff06d76743d02c6938f082c1648a82415b03e54b4467d151347352021-02-23 17:32:393 days 22 hrs ago PancakeSwap: Router0x79608541c826fce905813fd3c09dbb4fdc4573050.042837365191087986 BNB
0xf18aedd5b5fef145490253d9f8a3d0d5ad0790cde3d78571b9e1f23c51fc7e8451342282021-02-23 17:07:183 days 22 hrs ago PancakeSwap: Router0x79608541c826fce905813fd3c09dbb4fdc4573050.001447286904685341 BNB
0x007c53b17de3c4b5f2fff667899f27e196444b5342bb301ea92810137b3918d151338082021-02-23 16:46:183 days 23 hrs ago PancakeSwap: Router0x79608541c826fce905813fd3c09dbb4fdc4573050.00114597601106914 BNB
0xef6945fea68322083bb5afd4e91ea31c8b0d47efec0f387969b2c6aac802930e51337912021-02-23 16:45:273 days 23 hrs ago PancakeSwap: Router0x79608541c826fce905813fd3c09dbb4fdc4573050.00281995172326471 BNB
0xae080f10c64668bb9dc494449b914c1d98132de7a734b89815d8a9c27f1b42ab51088032021-02-22 19:40:534 days 20 hrs ago PancakeSwap: Router0x79608541c826fce905813fd3c09dbb4fdc4573050.000032021343471502 BNB
[ Download CSV Export 
Loading

Contract Name:
0 BNB

Compiler Version
0

Optimization Enabled:
0 BNB

Other Settings:
-NA-
Block Transaction Gas Used Reward
Age Block Fee Address BC Fee Address Voting Power Jailed Incoming
Block Uncle Number Difficulty Gas Used Reward
Loading
Loading
Make sure to use the "Vote Down" button for any spammy posts, and the "Vote Up" for interesting conversations.